Tracking 28790 objects as of 19-Apr-2024
HD Live streaming from Space Station
objects crossing your sky now

FENGYUN 1C DEB

Track FENGYUN 1C DEB now!
10-day predictions


NORAD ID: 31259
Int'l Code: 1999-025BMR
Perigee: 819.3 km
Apogee: 923.7 km
Inclination: 99.0 °
Period: 102.2 minutes
Semi major axis: 7242 km
RCS: 0.0083 m2 (small)
Launch date: May 10, 1999
Source: People's Republic of China (PRC)
Launch site: Taiyaun Space Center, China (TSC)

Note: This is SATELLITE DEBRIS
Your satellite tracking list
Your tracking list is empty




NASA's NSSDC Master Catalog

Two Line Element Set (TLE):
1 31259U 99025BMR 24108.70443605  .00007599  00000-0  43411-2 0  9994
2 31259  99.0362 177.9907 0072073  99.9487  31.0507 14.08547401870449
Source of the keplerian elements: AFSPC